Вернуться в каталог

STARLINK-5526

АктивенСвязьVLEO
NORAD 56496·PAYLOAD·🇺🇸 United States

Запущен May 10, 2023 с Vandenberg Space Force Base

Loading…

Ближайшие Пролёты (ближайшие 24 часа)

TLE

СвежийSource: CelesTrak SupGP

Эпоха: Sep 14, 2026, 20:44 UTC

1 56496C 23064BA  26257.86437500 -.00051036  00000+0 -42774-2 0  2579
2 56496  70.0020 347.3808 0003469 259.0644  26.4005 14.98351615    17

Отслеживайте STARLINK-5526 в реальном времени с AllMySat

Download on the App Store